Time,TemperatureF,DewpointF,PressureIn,WindDirection,WindDirectionDegrees,WindSpeedMPH,WindSpeedGustMPH,Humidity,HourlyPrecipIn,Conditions,Clouds,dailyrainin,SoftwareType,DateUTC
2013-07-12 00:01:00,63.9,60.6,30.00,NNW,333,0.0,0.0,89,0.00,,,0.00,VWS V14.01,2013-07-12 04:01:00,
2013-07-12 00:02:00,63.8,60.2,30.00,NNW,333,0.0,0.0,88,0.00,,,0.00,VWS V14.01,2013-07-12 04:02:00,
2013-07-12 00:07:00,63.6,60.3,29.99,NNW,333,0.0,1.0,89,0.00,,,0.00,VWS V14.01,2013-07-12 04:07:00,
2013-07-12 00:12:00,63.5,60.5,29.99,NNW,333,0.0,1.0,90,0.00,,,0.00,VWS V14.01,2013-07-12 04:12:00,
2013-07-12 00:17:00,63.6,60.6,30.00,NNW,333,0.0,1.0,90,0.00,,,0.00,VWS V14.01,2013-07-12 04:17:00,
2013-07-12 00:22:00,63.6,60.6,29.99,NNW,333,0.0,1.0,90,0.00,,,0.00,VWS V14.01,2013-07-12 04:22:00,
2013-07-12 00:27:00,63.7,60.7,29.99,NNW,333,0.0,1.0,90,0.00,,,0.00,VWS V14.01,2013-07-12 04:27:00,
2013-07-12 00:32:00,63.8,61.1,29.99,NNW,333,0.0,0.0,91,0.00,,,0.00,VWS V14.01,2013-07-12 04:32:00,
2013-07-12 00:37:00,63.8,61.1,29.99,NNW,333,0.0,0.0,91,0.00,,,0.00,VWS V14.01,2013-07-12 04:37:00,
2013-07-12 00:42:00,63.7,61.0,29.99,NNW,333,1.0,2.0,91,0.00,,,0.00,VWS V14.01,2013-07-12 04:42:00,
2013-07-12 00:47:00,63.6,60.9,29.99,NNW,333,0.0,2.0,91,0.00,,,0.00,VWS V14.01,2013-07-12 04:47:00,
2013-07-12 00:52:00,63.4,60.4,29.99,NNW,333,2.0,2.0,90,0.00,,,0.00,VWS V14.01,2013-07-12 04:52:00,
2013-07-12 00:57:00,63.3,60.3,29.99,NNW,333,1.0,2.0,90,0.00,,,0.00,VWS V14.01,2013-07-12 04:57:00,
2013-07-12 01:03:00,63.2,60.2,29.98,NNW,333,0.0,2.0,90,0.00,,,0.00,VWS V14.01,2013-07-12 05:03:00,
2013-07-12 01:08:00,63.2,60.2,29.99,NNW,333,0.0,2.0,90,0.00,,,0.00,VWS V14.01,2013-07-12 05:08:00,
2013-07-12 01:13:00,63.2,60.5,29.99,NNW,333,0.0,2.0,91,0.00,,,0.00,VWS V14.01,2013-07-12 05:13:00,
2013-07-12 01:18:00,63.2,60.5,29.98,NNW,333,0.0,2.0,91,0.00,,,0.00,VWS V14.01,2013-07-12 05:18:00,
2013-07-12 01:23:00,63.1,60.4,29.99,NNW,333,0.0,2.0,91,0.00,,,0.00,VWS V14.01,2013-07-12 05:23:00,
2013-07-12 01:28:00,62.8,60.1,29.99,NNW,333,0.0,2.0,91,0.00,,,0.00,VWS V14.01,2013-07-12 05:28:00,
2013-07-12 01:33:00,62.6,60.2,29.99,NNW,333,0.0,1.0,92,0.00,,,0.00,VWS V14.01,2013-07-12 05:33:00,
2013-07-12 01:38:00,62.5,60.2,30.00,NNW,333,2.0,2.0,92,0.00,,,0.00,VWS V14.01,2013-07-12 05:38:00,
2013-07-12 01:43:00,62.2,59.8,29.99,NNW,333,0.0,2.0,92,0.00,,,0.00,VWS V14.01,2013-07-12 05:43:00,
2013-07-12 01:48:00,62.0,59.7,29.99,NNW,333,0.0,3.0,92,0.00,,,0.00,VWS V14.01,2013-07-12 05:48:00,
2013-07-12 01:53:00,62.0,60.0,29.99,NNW,333,0.0,3.0,93,0.00,,,0.00,VWS V14.01,2013-07-12 05:53:00,
2013-07-12 01:58:00,61.9,59.9,29.99,NNW,333,0.0,3.0,93,0.00,,,0.00,VWS V14.01,2013-07-12 05:58:00,
2013-07-12 02:03:00,61.8,59.8,29.99,NNW,333,2.0,3.0,93,0.00,,,0.00,VWS V14.01,2013-07-12 06:03:00,
2013-07-12 02:08:00,61.7,59.7,29.99,NNW,333,0.0,3.0,93,0.00,,,0.00,VWS V14.01,2013-07-12 06:08:00,
2013-07-12 02:13:00,61.6,59.6,29.99,NNW,333,0.0,3.0,93,0.00,,,0.00,VWS V14.01,2013-07-12 06:13:00,
2013-07-12 02:18:00,61.5,59.5,29.99,NNW,333,0.0,3.0,93,0.00,,,0.00,VWS V14.01,2013-07-12 06:18:00,
2013-07-12 02:23:00,61.3,59.3,29.99,NNW,333,0.0,3.0,93,0.00,,,0.00,VWS V14.01,2013-07-12 06:23:00,
2013-07-12 02:29:00,61.1,59.1,29.99,NNW,333,0.0,3.0,93,0.00,,,0.00,VWS V14.01,2013-07-12 06:29:00,
2013-07-12 02:34:00,60.8,58.8,29.99,NNW,333,0.0,0.0,93,0.00,,,0.00,VWS V14.01,2013-07-12 06:34:00,
2013-07-12 02:39:00,60.7,58.7,29.99,NNW,333,0.0,0.0,93,0.00,,,0.00,VWS V14.01,2013-07-12 06:39:00,
2013-07-12 02:44:00,60.7,58.7,29.99,NNW,333,0.0,0.0,93,0.00,,,0.00,VWS V14.01,2013-07-12 06:44:00,
2013-07-12 02:49:00,60.5,58.2,29.99,NNW,333,0.0,0.0,92,0.00,,,0.00,VWS V14.01,2013-07-12 06:49:00,
2013-07-12 02:54:00,60.3,58.0,29.98,NNW,333,0.0,0.0,92,0.00,,,0.00,VWS V14.01,2013-07-12 06:54:00,
2013-07-12 02:59:00,60.2,58.2,29.98,NNW,333,0.0,0.0,93,0.00,,,0.00,VWS V14.01,2013-07-12 06:59:00,
2013-07-12 03:05:00,60.1,58.1,29.98,NNW,333,0.0,2.0,93,0.00,,,0.00,VWS V14.01,2013-07-12 07:05:00,
2013-07-12 03:10:00,59.9,57.9,29.98,NNW,333,0.0,2.0,93,0.00,,,0.00,VWS V14.01,2013-07-12 07:10:00,
2013-07-12 03:15:00,59.8,57.8,29.98,NNW,333,0.0,2.0,93,0.00,,,0.00,VWS V14.01,2013-07-12 07:15:00,
2013-07-12 03:20:00,59.8,57.8,29.99,NNW,333,0.0,2.0,93,0.00,,,0.00,VWS V14.01,2013-07-12 07:20:00,
2013-07-12 03:25:00,59.9,57.9,29.98,NNW,333,0.0,2.0,93,0.00,,,0.00,VWS V14.01,2013-07-12 07:25:00,
2013-07-12 03:30:00,59.8,57.8,29.98,NNW,333,0.0,0.0,93,0.00,,,0.00,VWS V14.01,2013-07-12 07:30:00,
2013-07-12 03:35:00,59.7,57.7,29.98,NNW,333,2.0,3.0,93,0.00,,,0.00,VWS V14.01,2013-07-12 07:35:00,
2013-07-12 03:40:00,59.7,57.7,29.98,NNW,333,0.0,3.0,93,0.00,,,0.00,VWS V14.01,2013-07-12 07:40:00,
2013-07-12 03:46:00,59.6,57.6,29.98,NNW,333,0.0,3.0,93,0.00,,,0.00,VWS V14.01,2013-07-12 07:46:00,
2013-07-12 03:51:00,59.6,57.6,29.98,NNW,333,1.0,3.0,93,0.00,,,0.00,VWS V14.01,2013-07-12 07:51:00,
2013-07-12 03:56:00,59.5,57.5,29.98,NNW,333,2.0,3.0,93,0.00,,,0.00,VWS V14.01,2013-07-12 07:56:00,
2013-07-12 04:01:00,59.3,57.3,29.99,NNW,333,0.0,3.0,93,0.00,,,0.00,VWS V14.01,2013-07-12 08:01:00,
2013-07-12 04:06:00,59.1,57.1,29.99,NNW,333,0.0,3.0,93,0.00,,,0.00,VWS V14.01,2013-07-12 08:06:00,
2013-07-12 04:11:00,59.0,57.0,29.99,NNW,333,0.0,3.0,93,0.00,,,0.00,VWS V14.01,2013-07-12 08:11:00,
2013-07-12 04:16:00,58.9,56.9,29.99,NNW,333,0.0,3.0,93,0.00,,,0.00,VWS V14.01,2013-07-12 08:16:00,
2013-07-12 04:21:00,58.9,56.9,29.99,NNW,333,0.0,3.0,93,0.00,,,0.00,VWS V14.01,2013-07-12 08:21:00,
2013-07-12 04:26:00,58.8,56.8,29.99,NNW,333,0.0,3.0,93,0.00,,,0.00,VWS V14.01,2013-07-12 08:26:00,
2013-07-12 04:32:00,58.7,56.7,29.99,NNW,333,0.0,2.0,93,0.00,,,0.00,VWS V14.01,2013-07-12 08:32:00,
2013-07-12 04:37:00,58.6,56.6,29.99,NNW,333,0.0,2.0,93,0.00,,,0.00,VWS V14.01,2013-07-12 08:37:00,
2013-07-12 04:42:00,58.5,56.5,29.99,NNW,333,2.0,2.0,93,0.00,,,0.00,VWS V14.01,2013-07-12 08:42:00,
2013-07-12 04:47:00,58.4,56.4,29.99,NNW,333,1.0,2.0,93,0.00,,,0.00,VWS V14.01,2013-07-12 08:47:00,
2013-07-12 04:52:00,58.2,56.2,29.99,NNW,333,2.0,3.0,93,0.00,,,0.00,VWS V14.01,2013-07-12 08:52:00,
2013-07-12 04:57:00,58.3,56.3,29.99,NNW,327,0.0,3.0,93,0.00,,,0.00,VWS V14.01,2013-07-12 08:57:00,
2013-07-12 05:02:00,58.4,56.4,30.00,NNW,327,0.0,0.0,93,0.00,,,0.00,VWS V14.01,2013-07-12 09:02:00,
2013-07-12 05:08:00,58.5,56.5,29.99,NNW,327,0.0,3.0,93,0.00,,,0.00,VWS V14.01,2013-07-12 09:08:00,
2013-07-12 05:13:00,58.5,56.5,29.99,NNW,327,1.0,3.0,93,0.00,,,0.00,VWS V14.01,2013-07-12 09:13:00,
2013-07-12 05:18:00,58.4,56.4,29.99,NNW,327,0.0,3.0,93,0.00,,,0.00,VWS V14.01,2013-07-12 09:18:00,
2013-07-12 05:23:00,58.4,56.4,29.99,NNW,327,0.0,3.0,93,0.00,,,0.00,VWS V14.01,2013-07-12 09:23:00,
2013-07-12 05:28:00,58.4,56.4,30.00,NNW,327,0.0,3.0,93,0.00,,,0.00,VWS V14.01,2013-07-12 09:28:00,
2013-07-12 05:33:00,58.3,56.3,30.00,NNW,327,0.0,0.0,93,0.00,,,0.00,VWS V14.01,2013-07-12 09:33:00,
2013-07-12 05:38:00,58.3,56.3,30.00,NNW,327,0.0,0.0,93,0.00,,,0.00,VWS V14.01,2013-07-12 09:38:00,
2013-07-12 05:43:00,58.2,56.2,30.00,NNW,327,0.0,0.0,93,0.00,,,0.00,VWS V14.01,2013-07-12 09:43:00,
2013-07-12 05:48:00,58.0,56.0,30.00,NNW,327,2.0,3.0,93,0.00,,,0.00,VWS V14.01,2013-07-12 09:48:00,
2013-07-12 05:53:00,57.7,55.7,30.00,NNW,327,0.0,3.0,93,0.00,,,0.00,VWS V14.01,2013-07-12 09:53:00,
2013-07-12 05:59:00,57.7,55.7,30.00,NNW,327,0.0,3.0,93,0.00,,,0.00,VWS V14.01,2013-07-12 09:59:00,
2013-07-12 06:04:00,57.7,55.7,30.00,NNW,327,1.0,1.0,93,0.00,,,0.00,VWS V14.01,2013-07-12 10:04:00,
2013-07-12 06:09:00,57.7,55.7,30.01,NNW,327,0.0,3.0,93,0.00,,,0.00,VWS V14.01,2013-07-12 10:09:00,
2013-07-12 06:14:00,57.7,55.7,30.01,NNW,327,1.0,3.0,93,0.00,,,0.00,VWS V14.01,2013-07-12 10:14:00,
2013-07-12 06:19:00,57.8,55.8,30.01,NNW,327,0.0,3.0,93,0.00,,,0.00,VWS V14.01,2013-07-12 10:19:00,
2013-07-12 06:24:00,57.8,55.8,30.01,NNW,327,0.0,3.0,93,0.00,,,0.00,VWS V14.01,2013-07-12 10:24:00,
2013-07-12 06:29:00,57.8,55.8,30.01,NNW,327,0.0,0.0,93,0.00,,,0.00,VWS V14.01,2013-07-12 10:29:00,
2013-07-12 06:34:00,57.8,55.8,30.01,NNW,327,0.0,0.0,93,0.00,,,0.00,VWS V14.01,2013-07-12 10:34:00,
2013-07-12 06:40:00,57.7,55.7,30.02,NNW,327,2.0,2.0,93,0.00,,,0.00,VWS V14.01,2013-07-12 10:40:00,
2013-07-12 06:45:00,57.7,55.7,30.02,NNW,327,0.0,2.0,93,0.00,,,0.00,VWS V14.01,2013-07-12 10:45:00,
2013-07-12 06:50:00,57.7,55.7,30.02,NNW,327,0.0,2.0,93,0.00,,,0.00,VWS V14.01,2013-07-12 10:50:00,
2013-07-12 06:55:00,57.6,55.6,30.02,NNW,327,0.0,2.0,93,0.00,,,0.00,VWS V14.01,2013-07-12 10:55:00,
2013-07-12 07:00:00,57.6,55.6,30.02,NNW,327,0.0,0.0,93,0.00,,,0.00,VWS V14.01,2013-07-12 11:00:00,
2013-07-12 07:05:00,57.7,56.0,30.02,NNW,327,0.0,1.0,94,0.00,,,0.00,VWS V14.01,2013-07-12 11:05:00,
2013-07-12 07:10:00,57.7,56.0,30.02,NNW,327,0.0,1.0,94,0.00,,,0.00,VWS V14.01,2013-07-12 11:10:00,
2013-07-12 07:15:00,57.7,56.0,30.02,NNW,327,0.0,1.0,94,0.00,,,0.00,VWS V14.01,2013-07-12 11:15:00,
2013-07-12 07:21:00,57.8,56.1,30.03,NNW,327,0.0,1.0,94,0.00,,,0.00,VWS V14.01,2013-07-12 11:21:00,
2013-07-12 07:26:00,57.9,56.2,30.02,NNW,327,0.0,1.0,94,0.00,,,0.00,VWS V14.01,2013-07-12 11:26:00,
2013-07-12 07:31:00,58.0,56.3,30.02,NNW,327,0.0,0.0,94,0.00,,,0.00,VWS V14.01,2013-07-12 11:31:00,
2013-07-12 07:36:00,58.1,56.4,30.03,NNW,327,2.0,2.0,94,0.00,,,0.00,VWS V14.01,2013-07-12 11:36:00,
2013-07-12 07:41:00,58.2,56.5,30.03,NNW,327,0.0,2.0,94,0.00,,,0.00,VWS V14.01,2013-07-12 11:41:00,
2013-07-12 07:46:00,58.3,56.6,30.03,NNW,327,0.0,2.0,94,0.00,,,0.00,VWS V14.01,2013-07-12 11:46:00,
2013-07-12 07:51:00,58.4,56.7,30.03,NNW,327,1.0,2.0,94,0.00,,,0.00,VWS V14.01,2013-07-12 11:51:00,
2013-07-12 07:56:00,58.8,57.1,30.03,NNW,327,0.0,2.0,94,0.00,,,0.00,VWS V14.01,2013-07-12 11:56:00,
2013-07-12 08:01:00,59.1,57.7,30.03,NNW,327,0.0,1.0,95,0.00,,,0.00,VWS V14.01,2013-07-12 12:01:00,
2013-07-12 08:07:00,59.3,57.9,30.04,NNW,327,0.0,3.0,95,0.00,,,0.00,VWS V14.01,2013-07-12 12:07:00,
2013-07-12 08:12:00,59.5,57.8,30.04,NNW,327,1.0,3.0,94,0.00,,,0.00,VWS V14.01,2013-07-12 12:12:00,
2013-07-12 08:17:00,59.6,57.9,30.04,NNW,327,0.0,3.0,94,0.00,,,0.00,VWS V14.01,2013-07-12 12:17:00,
2013-07-12 08:22:00,59.8,58.1,30.04,NNW,327,0.0,3.0,94,0.00,,,0.00,VWS V14.01,2013-07-12 12:22:00,
2013-07-12 08:27:00,60.0,58.3,30.04,NNW,327,1.0,3.0,94,0.00,,,0.00,VWS V14.01,2013-07-12 12:27:00,
2013-07-12 08:32:00,60.2,58.5,30.05,NNW,327,0.0,0.0,94,0.00,,,0.00,VWS V14.01,2013-07-12 12:32:00,
2013-07-12 08:37:00,60.6,58.9,30.05,NNW,327,0.0,0.0,94,0.00,,,0.00,VWS V14.01,2013-07-12 12:37:00,
2013-07-12 08:42:00,60.9,59.2,30.05,NNW,327,0.0,0.0,94,0.00,,,0.00,VWS V14.01,2013-07-12 12:42:00,
2013-07-12 08:47:00,61.2,59.5,30.05,NNW,327,0.0,0.0,94,0.00,,,0.00,VWS V14.01,2013-07-12 12:47:00,
2013-07-12 08:52:00,61.5,59.5,30.05,NNW,327,1.0,2.0,93,0.00,,,0.00,VWS V14.01,2013-07-12 12:52:00,
2013-07-12 08:57:00,61.6,59.6,30.05,NNW,327,0.0,3.0,93,0.00,,,0.00,VWS V14.01,2013-07-12 12:57:00,
2013-07-12 09:02:00,62.1,60.1,30.05,NNW,327,0.0,2.0,93,0.00,,,0.00,VWS V14.01,2013-07-12 13:02:00,
2013-07-12 09:08:00,62.4,60.0,30.05,NNW,327,0.0,3.0,92,0.00,,,0.00,VWS V14.01,2013-07-12 13:08:00,
2013-07-12 09:13:00,62.8,60.1,30.05,NNW,327,0.0,3.0,91,0.00,,,0.00,VWS V14.01,2013-07-12 13:13:00,
2013-07-12 09:18:00,63.3,60.6,30.05,NNW,327,0.0,3.0,91,0.00,,,0.00,VWS V14.01,2013-07-12 13:18:00,
2013-07-12 09:23:00,63.6,60.6,30.05,NNW,327,0.0,3.0,90,0.00,,,0.00,VWS V14.01,2013-07-12 13:23:00,
2013-07-12 09:28:00,63.8,60.5,30.05,NNW,327,0.0,3.0,89,0.00,,,0.00,VWS V14.01,2013-07-12 13:28:00,
2013-07-12 09:33:00,64.1,60.8,30.05,NNW,327,0.0,0.0,89,0.00,,,0.00,VWS V14.01,2013-07-12 13:33:00,
2013-07-12 09:38:00,64.2,60.3,30.05,NNW,327,0.0,1.0,87,0.00,,,0.00,VWS V14.01,2013-07-12 13:38:00,
2013-07-12 09:44:00,64.5,60.5,30.05,NNW,327,0.0,1.0,87,0.00,,,0.00,VWS V14.01,2013-07-12 13:44:00,
2013-07-12 09:49:00,64.8,61.2,30.05,NNW,327,0.0,1.0,88,0.00,,,0.00,VWS V14.01,2013-07-12 13:49:00,
2013-07-12 09:54:00,64.9,60.6,30.05,NNW,327,0.0,1.0,86,0.00,,,0.00,VWS V14.01,2013-07-12 13:54:00,
2013-07-12 09:59:00,65.1,60.5,30.05,NNW,327,0.0,1.0,85,0.00,,,0.00,VWS V14.01,2013-07-12 13:59:00,
2013-07-12 10:04:00,65.4,61.1,30.05,NNW,327,0.0,0.0,86,0.00,,,0.00,VWS V14.01,2013-07-12 14:04:00,
2013-07-12 10:09:00,65.5,60.9,30.05,NNW,327,0.0,0.0,85,0.00,,,0.00,VWS V14.01,2013-07-12 14:09:00,
2013-07-12 10:14:00,65.7,61.1,30.05,NNW,327,0.0,0.0,85,0.00,,,0.00,VWS V14.01,2013-07-12 14:14:00,
2013-07-12 10:19:00,66.0,61.4,30.05,NW,322,0.0,4.0,85,0.00,,,0.00,VWS V14.01,2013-07-12 14:19:00,
2013-07-12 10:24:00,65.9,61.3,30.05,NW,322,0.0,4.0,85,0.00,,,0.00,VWS V14.01,2013-07-12 14:24:00,
2013-07-12 10:29:00,65.9,61.3,30.06,NW,322,0.0,0.0,85,0.00,,,0.00,VWS V14.01,2013-07-12 14:29:00,
2013-07-12 10:34:00,65.9,61.3,30.06,NW,322,0.0,0.0,85,0.00,,,0.00,VWS V14.01,2013-07-12 14:34:00,
2013-07-12 10:39:00,66.1,61.5,30.06,NW,322,0.0,0.0,85,0.00,,,0.00,VWS V14.01,2013-07-12 14:39:00,
2013-07-12 10:44:00,66.1,61.5,30.07,NW,322,0.0,3.0,85,0.00,,,0.00,VWS V14.01,2013-07-12 14:44:00,
2013-07-12 10:49:00,66.1,61.8,30.07,NW,322,0.0,3.0,86,0.00,,,0.00,VWS V14.01,2013-07-12 14:49:00,
2013-07-12 10:54:00,66.1,61.8,30.07,NW,322,0.0,3.0,86,0.00,,,0.00,VWS V14.01,2013-07-12 14:54:00,
2013-07-12 11:00:00,66.1,61.5,30.07,NW,322,0.0,0.0,85,0.00,,,0.00,VWS V14.01,2013-07-12 15:00:00,
2013-07-12 11:05:00,66.1,61.8,30.07,NW,322,0.0,0.0,86,0.01,,,0.01,VWS V14.01,2013-07-12 15:05:00,
2013-07-12 11:10:00,65.9,61.6,30.07,NW,322,0.0,0.0,86,0.02,,,0.02,VWS V14.01,2013-07-12 15:10:00,
2013-07-12 11:15:00,65.9,62.2,30.07,NW,322,0.0,0.0,88,0.03,,,0.03,VWS V14.01,2013-07-12 15:15:00,
2013-07-12 11:20:00,65.7,62.0,30.07,NW,322,0.0,2.0,88,0.03,,,0.03,VWS V14.01,2013-07-12 15:20:00,
2013-07-12 11:25:00,65.7,62.4,30.07,NW,322,0.0,2.0,89,0.03,,,0.03,VWS V14.01,2013-07-12 15:25:00,
2013-07-12 11:30:00,65.7,62.7,30.07,NW,318,1.0,3.0,90,0.03,,,0.03,VWS V14.01,2013-07-12 15:30:00,
2013-07-12 11:35:00,65.8,62.5,30.07,NW,313,2.0,4.0,89,0.03,,,0.03,VWS V14.01,2013-07-12 15:35:00,
2013-07-12 11:41:00,66.3,63.6,30.07,NW,312,0.0,4.0,91,0.03,,,0.03,VWS V14.01,2013-07-12 15:41:00,
2013-07-12 11:46:00,67.0,64.0,30.07,NW,305,1.0,5.0,90,0.03,,,0.03,VWS V14.01,2013-07-12 15:46:00,
2013-07-12 11:51:00,67.4,64.1,30.07,WNW,294,0.0,5.0,89,0.03,,,0.03,VWS V14.01,2013-07-12 15:51:00,
2013-07-12 11:56:00,67.8,64.4,30.07,NW,320,2.0,5.0,89,0.03,,,0.03,VWS V14.01,2013-07-12 15:56:00,
2013-07-12 12:01:00,68.4,64.4,30.07,WNW,302,1.0,4.0,87,0.03,,,0.03,VWS V14.01,2013-07-12 16:01:00,
2013-07-12 12:06:00,68.7,64.0,30.07,SW,226,0.0,6.0,85,0.03,,,0.03,VWS V14.01,2013-07-12 16:06:00,
2013-07-12 12:11:00,69.2,64.5,30.06,WNW,293,0.0,6.0,85,0.03,,,0.03,VWS V14.01,2013-07-12 16:11:00,
2013-07-12 12:16:00,70.1,65.7,30.06,WNW,294,0.0,6.0,86,0.03,,,0.03,VWS V14.01,2013-07-12 16:16:00,
2013-07-12 12:21:00,71.1,67.0,30.06,WNW,298,0.0,6.0,87,0.03,,,0.03,VWS V14.01,2013-07-12 16:21:00,
2013-07-12 12:26:00,71.9,65.4,30.06,WNW,292,0.0,6.0,80,0.03,,,0.03,VWS V14.01,2013-07-12 16:26:00,
2013-07-12 12:31:00,72.2,66.1,30.07,NW,309,0.0,3.0,81,0.00,,,0.03,VWS V14.01,2013-07-12 16:31:00,
2013-07-12 12:36:00,72.2,65.3,30.07,NW,304,2.0,4.0,79,0.00,,,0.03,VWS V14.01,2013-07-12 16:36:00,
2013-07-12 12:41:00,72.1,64.9,30.07,WNW,292,1.0,4.0,78,0.00,,,0.03,VWS V14.01,2013-07-12 16:41:00,
2013-07-12 12:46:00,72.0,65.5,30.06,NW,316,2.0,6.0,80,0.00,,,0.03,VWS V14.01,2013-07-12 16:46:00,
2013-07-12 12:52:00,72.3,66.2,30.06,NW,319,0.0,6.0,81,0.00,,,0.03,VWS V14.01,2013-07-12 16:52:00,
2013-07-12 12:57:00,72.7,66.5,30.06,WNW,297,1.0,6.0,81,0.00,,,0.03,VWS V14.01,2013-07-12 16:57:00,
2013-07-12 13:02:00,73.0,66.1,30.06,NW,306,0.0,1.0,79,0.00,,,0.03,VWS V14.01,2013-07-12 17:02:00,
2013-07-12 13:07:00,73.0,65.7,30.06,WNW,300,0.0,4.0,78,0.00,,,0.03,VWS V14.01,2013-07-12 17:07:00,
2013-07-12 13:12:00,73.1,66.6,30.06,WNW,297,3.0,4.0,80,0.00,,,0.03,VWS V14.01,2013-07-12 17:12:00,
2013-07-12 13:17:00,73.0,66.8,30.06,WNW,296,0.0,4.0,81,0.00,,,0.03,VWS V14.01,2013-07-12 17:17:00,
2013-07-12 13:23:00,73.1,67.3,30.06,WNW,296,0.0,4.0,82,0.00,,,0.03,VWS V14.01,2013-07-12 17:23:00,
2013-07-12 13:28:00,72.9,66.7,30.06,WNW,296,1.0,4.0,81,0.00,,,0.03,VWS V14.01,2013-07-12 17:28:00,
2013-07-12 13:34:00,72.9,67.1,30.06,WNW,296,0.0,0.0,82,0.00,,,0.03,VWS V14.01,2013-07-12 17:34:00,
2013-07-12 13:39:00,73.1,67.3,30.06,WNW,296,0.0,0.0,82,0.00,,,0.03,VWS V14.01,2013-07-12 17:39:00,
2013-07-12 13:44:00,73.7,68.6,30.06,WNW,297,0.0,2.0,84,0.00,,,0.03,VWS V14.01,2013-07-12 17:44:00,
2013-07-12 13:49:00,74.6,68.4,30.06,West,274,2.0,3.0,81,0.00,,,0.03,VWS V14.01,2013-07-12 17:49:00,
2013-07-12 13:54:00,74.7,67.8,30.06,NW,311,1.0,6.0,79,0.00,,,0.03,VWS V14.01,2013-07-12 17:54:00,
2013-07-12 13:59:00,74.8,68.6,30.06,NE,43,0.0,6.0,81,0.00,,,0.03,VWS V14.01,2013-07-12 17:59:00,
2013-07-12 14:04:00,75.0,68.1,30.05,West,277,0.0,3.0,79,0.00,,,0.03,VWS V14.01,2013-07-12 18:04:00,
2013-07-12 14:09:00,75.2,68.2,30.05,NNE,17,0.0,4.0,79,0.00,,,0.03,VWS V14.01,2013-07-12 18:09:00,
2013-07-12 14:14:00,75.5,67.8,30.05,West,275,1.0,4.0,77,0.00,,,0.03,VWS V14.01,2013-07-12 18:14:00,
2013-07-12 14:19:00,75.9,67.8,30.05,ESE,117,0.0,4.0,76,0.00,,,0.03,VWS V14.01,2013-07-12 18:19:00,
2013-07-12 14:25:00,75.9,67.8,30.05,SW,235,0.0,4.0,76,0.00,,,0.03,VWS V14.01,2013-07-12 18:25:00,
2013-07-12 14:30:00,75.8,66.9,30.06,ENE,63,1.0,1.0,74,0.00,,,0.03,VWS V14.01,2013-07-12 18:30:00,
2013-07-12 14:35:00,75.1,66.2,30.05,NW,310,0.0,3.0,74,0.00,,,0.03,VWS V14.01,2013-07-12 18:35:00,
2013-07-12 14:40:00,74.3,66.2,30.06,NW,318,0.0,3.0,76,0.00,,,0.03,VWS V14.01,2013-07-12 18:40:00,
2013-07-12 14:45:00,73.7,66.1,30.05,North,5,0.0,4.0,77,0.00,,,0.03,VWS V14.01,2013-07-12 18:45:00,
2013-07-12 14:51:00,73.3,65.7,30.05,North,355,0.0,4.0,77,0.00,,,0.03,VWS V14.01,2013-07-12 18:51:00,
2013-07-12 14:56:00,72.9,66.0,30.06,NNW,336,0.0,4.0,79,0.00,,,0.03,VWS V14.01,2013-07-12 18:56:00,
2013-07-12 15:01:00,72.5,65.6,30.06,NNW,336,0.0,0.0,79,0.00,,,0.03,VWS V14.01,2013-07-12 19:01:00,
2013-07-12 15:06:00,72.2,66.1,30.06,NNW,336,0.0,0.0,81,0.00,,,0.03,VWS V14.01,2013-07-12 19:06:00,
2013-07-12 15:11:00,71.9,66.5,30.07,NNW,346,0.0,0.0,83,0.02,,,0.05,VWS V14.01,2013-07-12 19:11:00,
2013-07-12 15:16:00,70.8,65.4,30.07,SSE,165,0.0,4.0,83,0.18,,,0.21,VWS V14.01,2013-07-12 19:16:00,
2013-07-12 15:21:00,69.5,63.8,30.06,SSE,165,0.0,4.0,82,0.19,,,0.22,VWS V14.01,2013-07-12 19:21:00,
2013-07-12 15:27:00,68.8,64.1,30.07,SSE,165,0.0,4.0,85,0.19,,,0.22,VWS V14.01,2013-07-12 19:27:00,
2013-07-12 15:32:00,68.3,64.3,30.07,SSE,165,0.0,0.0,87,0.19,,,0.22,VWS V14.01,2013-07-12 19:32:00,
2013-07-12 15:38:00,68.1,64.4,30.07,SSE,165,0.0,0.0,88,0.19,,,0.22,VWS V14.01,2013-07-12 19:38:00,
2013-07-12 15:43:00,68.0,64.6,30.07,SSE,165,0.0,0.0,89,0.19,,,0.22,VWS V14.01,2013-07-12 19:43:00,
2013-07-12 15:48:00,68.0,65.0,30.07,SSE,165,0.0,0.0,90,0.19,,,0.22,VWS V14.01,2013-07-12 19:48:00,
2013-07-12 15:53:00,68.0,65.0,30.07,SSE,165,0.0,0.0,90,0.20,,,0.23,VWS V14.01,2013-07-12 19:53:00,
2013-07-12 15:59:00,68.0,65.3,30.07,SSE,165,0.0,0.0,91,0.20,,,0.23,VWS V14.01,2013-07-12 19:59:00,
2013-07-12 16:04:00,68.1,65.7,30.06,SSE,165,0.0,0.0,92,0.20,,,0.23,VWS V14.01,2013-07-12 20:04:00,
2013-07-12 16:09:00,68.1,65.7,30.07,SSE,165,0.0,3.0,92,0.20,,,0.23,VWS V14.01,2013-07-12 20:09:00,
2013-07-12 16:15:00,68.2,65.8,30.07,WNW,292,2.0,3.0,92,0.20,,,0.23,VWS V14.01,2013-07-12 20:15:00,
2013-07-12 16:20:00,68.3,65.9,30.07,WNW,292,0.0,3.0,92,0.20,,,0.23,VWS V14.01,2013-07-12 20:20:00,
2013-07-12 16:25:00,68.2,65.8,30.07,WNW,292,1.0,3.0,92,0.20,,,0.23,VWS V14.01,2013-07-12 20:25:00,
2013-07-12 16:30:00,68.3,65.9,30.07,WNW,292,2.0,3.0,92,0.01,,,0.23,VWS V14.01,2013-07-12 20:30:00,
2013-07-12 16:36:00,68.1,65.7,30.06,WNW,292,1.0,3.0,92,0.01,,,0.23,VWS V14.01,2013-07-12 20:36:00,
2013-07-12 16:41:00,67.9,65.5,30.07,WNW,298,0.0,3.0,92,0.01,,,0.23,VWS V14.01,2013-07-12 20:41:00,
2013-07-12 16:47:00,67.9,65.5,30.06,WNW,298,2.0,4.0,92,0.01,,,0.23,VWS V14.01,2013-07-12 20:47:00,
2013-07-12 16:52:00,67.9,65.8,30.06,NW,305,4.0,5.0,93,0.01,,,0.23,VWS V14.01,2013-07-12 20:52:00,
2013-07-12 16:57:00,67.7,65.6,30.06,NW,307,4.0,5.0,93,0.02,,,0.24,VWS V14.01,2013-07-12 20:57:00,
2013-07-12 17:02:00,67.6,65.2,30.06,NW,312,3.0,7.0,92,0.01,,,0.24,VWS V14.01,2013-07-12 21:02:00,
2013-07-12 17:07:00,67.7,65.6,30.06,WNW,292,3.0,7.0,93,0.01,,,0.24,VWS V14.01,2013-07-12 21:07:00,
2013-07-12 17:12:00,67.9,65.8,30.07,NW,306,0.0,7.0,93,0.01,,,0.24,VWS V14.01,2013-07-12 21:12:00,
2013-07-12 17:17:00,68.1,66.0,30.07,NW,306,0.0,7.0,93,0.01,,,0.24,VWS V14.01,2013-07-12 21:17:00,
2013-07-12 17:23:00,68.1,66.0,30.07,NW,306,1.0,7.0,93,0.01,,,0.24,VWS V14.01,2013-07-12 21:23:00,
2013-07-12 17:28:00,68.0,65.9,30.07,NW,315,2.0,7.0,93,0.01,,,0.24,VWS V14.01,2013-07-12 21:28:00,
2013-07-12 17:33:00,67.9,65.5,30.07,NW,313,2.0,4.0,92,0.01,,,0.24,VWS V14.01,2013-07-12 21:33:00,
2013-07-12 17:38:00,67.8,65.4,30.08,NW,313,0.0,4.0,92,0.01,,,0.24,VWS V14.01,2013-07-12 21:38:00,
2013-07-12 17:43:00,67.7,65.3,30.08,NW,313,0.0,4.0,92,0.01,,,0.24,VWS V14.01,2013-07-12 21:43:00,
2013-07-12 17:48:00,67.7,65.3,30.08,NW,313,0.0,4.0,92,0.01,,,0.24,VWS V14.01,2013-07-12 21:48:00,
2013-07-12 17:54:00,67.9,65.8,30.08,NW,313,0.0,4.0,93,0.01,,,0.24,VWS V14.01,2013-07-12 21:54:00,
2013-07-12 17:59:00,67.8,65.4,30.08,NW,313,2.0,4.0,92,0.01,,,0.24,VWS V14.01,2013-07-12 21:59:00,
2013-07-12 18:04:00,67.7,65.3,30.07,NW,313,0.0,4.0,92,0.00,,,0.24,VWS V14.01,2013-07-12 22:04:00,
2013-07-12 18:09:00,67.7,65.3,30.07,NW,313,3.0,4.0,92,0.00,,,0.24,VWS V14.01,2013-07-12 22:09:00,
2013-07-12 18:14:00,67.6,65.2,30.07,NW,309,2.0,4.0,92,0.00,,,0.24,VWS V14.01,2013-07-12 22:14:00,
2013-07-12 18:19:00,67.6,65.5,30.07,NW,309,2.0,4.0,93,0.00,,,0.24,VWS V14.01,2013-07-12 22:19:00,
2013-07-12 18:25:00,67.4,65.3,30.07,NW,309,2.0,4.0,93,0.00,,,0.24,VWS V14.01,2013-07-12 22:25:00,
2013-07-12 18:30:00,67.3,65.2,30.06,WNW,301,2.0,3.0,93,0.00,,,0.24,VWS V14.01,2013-07-12 22:30:00,
2013-07-12 18:35:00,67.2,65.1,30.07,WNW,303,3.0,4.0,93,0.00,,,0.24,VWS V14.01,2013-07-12 22:35:00,
2013-07-12 18:40:00,67.2,65.1,30.07,WNW,303,0.0,4.0,93,0.00,,,0.24,VWS V14.01,2013-07-12 22:40:00,
2013-07-12 18:45:00,67.1,65.0,30.07,WNW,303,0.0,4.0,93,0.00,,,0.24,VWS V14.01,2013-07-12 22:45:00,
2013-07-12 18:50:00,67.1,65.0,30.07,WNW,303,2.0,4.0,93,0.00,,,0.24,VWS V14.01,2013-07-12 22:50:00,
2013-07-12 18:56:00,67.1,65.0,30.07,WNW,303,2.0,4.0,93,0.00,,,0.24,VWS V14.01,2013-07-12 22:56:00,
2013-07-12 19:01:00,67.1,65.0,30.07,WNW,303,0.0,0.0,93,0.00,,,0.24,VWS V14.01,2013-07-12 23:01:00,
2013-07-12 19:06:00,67.0,64.9,30.08,WNW,301,0.0,2.0,93,0.00,,,0.24,VWS V14.01,2013-07-12 23:06:00,
2013-07-12 19:11:00,66.7,64.6,30.08,WNW,301,1.0,2.0,93,0.01,,,0.25,VWS V14.01,2013-07-12 23:11:00,
2013-07-12 19:16:00,66.5,64.4,30.08,WNW,301,0.0,2.0,93,0.01,,,0.25,VWS V14.01,2013-07-12 23:16:00,
2013-07-12 19:21:00,66.4,64.3,30.08,WNW,301,0.0,2.0,93,0.01,,,0.25,VWS V14.01,2013-07-12 23:21:00,
2013-07-12 19:27:00,66.2,64.1,30.08,WNW,301,1.0,2.0,93,0.02,,,0.26,VWS V14.01,2013-07-12 23:27:00,
2013-07-12 19:31:00,66.0,63.9,30.08,WNW,301,0.0,1.0,93,0.02,,,0.26,VWS V14.01,2013-07-12 23:31:00,
2013-07-12 19:37:00,65.8,63.7,30.08,WNW,301,0.0,2.0,93,0.03,,,0.27,VWS V14.01,2013-07-12 23:37:00,
2013-07-12 19:42:00,65.6,63.5,30.08,WNW,301,0.0,2.0,93,0.03,,,0.27,VWS V14.01,2013-07-12 23:42:00,
2013-07-12 19:47:00,65.5,63.4,30.08,WNW,301,0.0,2.0,93,0.05,,,0.29,VWS V14.01,2013-07-12 23:47:00,
2013-07-12 19:52:00,65.4,63.3,30.08,WNW,301,0.0,2.0,93,0.07,,,0.31,VWS V14.01,2013-07-12 23:52:00,
2013-07-12 19:57:00,65.2,63.1,30.08,WNW,301,0.0,2.0,93,0.09,,,0.33,VWS V14.01,2013-07-12 23:57:00,
2013-07-12 20:02:00,65.1,63.0,30.09,WNW,301,0.0,0.0,93,0.12,,,0.36,VWS V14.01,2013-07-13 00:02:00,
2013-07-12 20:07:00,64.9,62.8,30.08,WNW,301,0.0,0.0,93,0.13,,,0.37,VWS V14.01,2013-07-13 00:07:00,
2013-07-12 20:12:00,64.9,62.8,30.09,WNW,301,0.0,0.0,93,0.14,,,0.38,VWS V14.01,2013-07-13 00:12:00,
2013-07-12 20:17:00,64.8,62.7,30.09,WNW,301,0.0,0.0,93,0.15,,,0.39,VWS V14.01,2013-07-13 00:17:00,
2013-07-12 20:22:00,64.7,62.6,30.09,WNW,301,0.0,0.0,93,0.15,,,0.39,VWS V14.01,2013-07-13 00:22:00,
2013-07-12 20:27:00,64.5,62.4,30.09,WNW,301,0.0,1.0,93,0.15,,,0.39,VWS V14.01,2013-07-13 00:27:00,
2013-07-12 20:33:00,64.4,62.3,30.09,WNW,301,0.0,1.0,93,0.13,,,0.39,VWS V14.01,2013-07-13 00:33:00,
2013-07-12 20:38:00,64.4,62.6,30.09,WNW,301,0.0,1.0,94,0.13,,,0.39,VWS V14.01,2013-07-13 00:38:00,
2013-07-12 20:43:00,64.3,62.5,30.09,WNW,301,0.0,1.0,94,0.13,,,0.39,VWS V14.01,2013-07-13 00:43:00,
2013-07-12 20:48:00,64.3,62.5,30.09,WNW,301,0.0,2.0,94,0.13,,,0.39,VWS V14.01,2013-07-13 00:48:00,
2013-07-12 20:53:00,64.2,62.4,30.09,WNW,301,0.0,2.0,94,0.13,,,0.39,VWS V14.01,2013-07-13 00:53:00,
2013-07-12 20:58:00,64.2,62.4,30.09,WNW,301,0.0,2.0,94,0.13,,,0.39,VWS V14.01,2013-07-13 00:58:00,
2013-07-12 21:03:00,64.2,62.4,30.09,WNW,301,0.0,0.0,94,0.05,,,0.39,VWS V14.01,2013-07-13 01:03:00,
2013-07-12 21:08:00,64.2,62.4,30.09,WNW,301,0.0,1.0,94,0.05,,,0.39,VWS V14.01,2013-07-13 01:08:00,
2013-07-12 21:14:00,64.2,62.4,30.09,WNW,301,0.0,2.0,94,0.05,,,0.39,VWS V14.01,2013-07-13 01:14:00,
2013-07-12 21:19:00,64.2,62.4,30.09,WNW,301,2.0,2.0,94,0.05,,,0.39,VWS V14.01,2013-07-13 01:19:00,
2013-07-12 21:25:00,64.0,62.2,30.09,WNW,301,2.0,3.0,94,0.05,,,0.39,VWS V14.01,2013-07-13 01:25:00,
2013-07-12 21:30:00,63.9,62.1,30.09,WNW,301,2.0,3.0,94,0.02,,,0.41,VWS V14.01,2013-07-13 01:30:00,
2013-07-12 21:35:00,63.7,62.0,30.10,WNW,301,2.0,4.0,94,0.02,,,0.41,VWS V14.01,2013-07-13 01:35:00,
2013-07-12 21:40:00,63.6,61.8,30.10,WNW,301,0.0,4.0,94,0.02,,,0.41,VWS V14.01,2013-07-13 01:40:00,
2013-07-12 21:46:00,63.6,61.8,30.10,WNW,301,0.0,4.0,94,0.02,,,0.41,VWS V14.01,2013-07-13 01:46:00,
2013-07-12 21:51:00,63.6,61.8,30.10,WNW,301,0.0,4.0,94,0.02,,,0.41,VWS V14.01,2013-07-13 01:51:00,
2013-07-12 21:56:00,63.6,61.8,30.09,WNW,301,3.0,4.0,94,0.02,,,0.41,VWS V14.01,2013-07-13 01:56:00,
2013-07-12 22:03:00,63.5,61.8,30.09,WNW,301,3.0,4.0,94,0.02,,,0.41,VWS V14.01,2013-07-13 02:03:00,
2013-07-12 22:08:00,63.5,62.0,30.10,WNW,301,0.0,4.0,95,0.02,,,0.41,VWS V14.01,2013-07-13 02:08:00,
2013-07-12 22:13:00,63.5,62.0,30.11,SE,134,0.0,4.0,95,0.02,,,0.41,VWS V14.01,2013-07-13 02:13:00,
2013-07-12 22:18:00,63.4,62.0,30.10,SE,146,0.0,4.0,95,0.02,,,0.41,VWS V14.01,2013-07-13 02:18:00,
2013-07-12 22:23:00,63.4,61.7,30.11,SE,146,0.0,4.0,94,0.02,,,0.41,VWS V14.01,2013-07-13 02:23:00,
2013-07-12 22:28:00,63.4,61.7,30.11,SE,146,0.0,4.0,94,0.02,,,0.41,VWS V14.01,2013-07-13 02:28:00,
2013-07-12 22:33:00,63.4,62.0,30.11,SE,146,0.0,0.0,95,0.00,,,0.41,VWS V14.01,2013-07-13 02:33:00,
2013-07-12 22:38:00,63.4,62.0,30.11,SE,146,0.0,0.0,95,0.00,,,0.41,VWS V14.01,2013-07-13 02:38:00,
2013-07-12 22:43:00,63.3,61.8,30.11,SE,146,0.0,0.0,95,0.00,,,0.41,VWS V14.01,2013-07-13 02:43:00,
2013-07-12 22:49:00,63.3,61.8,30.11,SE,146,0.0,2.0,95,0.00,,,0.41,VWS V14.01,2013-07-13 02:49:00,
2013-07-12 22:54:00,63.3,61.8,30.11,SE,146,0.0,2.0,95,0.00,,,0.41,VWS V14.01,2013-07-13 02:54:00,
2013-07-12 22:59:00,63.2,61.8,30.12,SE,146,0.0,2.0,95,0.00,,,0.41,VWS V14.01,2013-07-13 02:59:00,
2013-07-12 23:04:00,63.2,61.8,30.12,SE,146,0.0,0.0,95,0.00,,,0.41,VWS V14.01,2013-07-13 03:04:00,
2013-07-12 23:09:00,63.2,61.8,30.11,SE,146,0.0,0.0,95,0.00,,,0.41,VWS V14.01,2013-07-13 03:09:00,
2013-07-12 23:14:00,63.3,61.8,30.11,SE,146,0.0,0.0,95,0.00,,,0.41,VWS V14.01,2013-07-13 03:14:00,
2013-07-12 23:20:00,63.3,61.8,30.12,SE,146,0.0,0.0,95,0.00,,,0.41,VWS V14.01,2013-07-13 03:20:00,
2013-07-12 23:26:00,63.3,61.8,30.12,SE,146,0.0,0.0,95,0.00,,,0.41,VWS V14.01,2013-07-13 03:26:00,
2013-07-12 23:31:00,63.3,61.8,30.12,SE,146,0.0,0.0,95,0.00,,,0.41,VWS V14.01,2013-07-13 03:31:00,
2013-07-12 23:36:00,63.3,61.8,30.12,SE,146,0.0,0.0,95,0.00,,,0.41,VWS V14.01,2013-07-13 03:36:00,
2013-07-12 23:41:00,63.3,61.8,30.12,SE,146,0.0,0.0,95,0.00,,,0.41,VWS V14.01,2013-07-13 03:41:00,
2013-07-12 23:46:00,63.3,61.8,30.12,SE,146,0.0,0.0,95,0.00,,,0.41,VWS V14.01,2013-07-13 03:46:00,
2013-07-12 23:51:00,63.3,61.8,30.12,SE,146,0.0,0.0,95,0.00,,,0.41,VWS V14.01,2013-07-13 03:51:00,
2013-07-12 23:57:00,63.3,61.8,30.12,SE,146,0.0,0.0,95,0.00,,,0.41,VWS V14.01,2013-07-13 03:57:00,